GW7363 Weather Reports


Display with metric or nautical units.
time (UTC)temp
F
wind
direction
speed
MPH
gust
MPH
rain 1hr
in
rain 24hr
in
rain mn
in
humidity
%
barometer
mb
20260505152338 59 337 4.0 4.0 0.00 0.00 0.00 56 1011.1
20260505151837 58 332 6.0 6.0 0.00 0.00 0.00 57 1011.2
20260505151334 57 322 4.0 4.0 0.00 0.00 0.00 57 1011.0
20260505150831 58 341 5.0 6.0 0.00 0.00 0.00 57 1011.1
20260505150329 57 2 2.0 2.0 0.00 0.00 0.00 57 1011.0
20260505140258 52 318 3.0 3.0 0.00 0.00 0.00 63 1010.4
20260505130222 51 348 2.0 2.0 0.00 0.00 0.00 64 1010.0
20260505124712 52 329 3.0 4.0 0.00 0.00 0.00 63 1009.7
20260505124209 52 324 3.0 3.0 0.00 0.00 0.00 63 1009.8
20260505123705 52 317 2.0 3.0 0.00 0.00 0.00 62 1009.8
20260505123202 53 348 2.0 2.0 0.00 0.00 0.00 62 1009.6
20260505122659 53 309 2.0 2.0 0.00 0.00 0.00 62 1009.6
20260505122156 53 310 2.0 2.0 0.00 0.00 0.00 61 1009.7
20260505121652 53 355 4.0 6.0 0.00 0.00 0.00 62 1009.4
20260505121149 53 323 3.0 4.0 0.00 0.00 0.00 61 1009.4
20260505120645 53 337 2.0 3.0 0.00 0.00 0.00 61 1009.4
20260505120141 53 332 2.0 3.0 0.00 0.00 0.00 61 1009.3
20260505115635 53 325 3.0 3.0 0.00 0.00 0.00 61 1009.3
20260505115133 53 347 2.0 2.0 0.00 0.00 0.00 61 1009.2
20260505114630 53 322 4.0 6.0 0.00 0.00 0.00 61 1009.3
20260505114126 53 325 2.0 3.0 0.00 0.00 0.00 61 1009.1
20260505113623 53 326 2.0 2.0 0.00 0.00 0.00 60 1009.2
20260505113119 53 338 2.0 2.0 0.00 0.00 0.00 60 1009.1
20260505112615 54 347 4.0 7.0 0.00 0.00 0.00 59 1009.3
20260505112114 54 327 1.0 1.0 0.00 0.00 0.00 59 1009.2
20260505111608 54 340 4.0 3.0 0.00 0.00 0.00 58 1009.1
20260505111104 54 336 2.0 2.0 0.00 0.00 0.00 58 1009.1
20260505110600 54 303 4.0 4.0 0.00 0.00 0.00 59 1009.3
20260505102033 54 339 2.0 2.0 0.00 0.00 0.00 58 1008.8
20260505101532 54 319 2.0 2.0 0.00 0.00 0.00 58 1008.9
20260505101027 54 325 3.0 3.0 0.00 0.00 0.00 58 1008.8
20260505100525 54 326 3.0 3.0 0.00 0.00 0.00 58 1008.8
20260505100021 54 315 3.0 3.0 0.00 0.00 0.00 58 1008.8
20260505095517 55 289 3.0 4.0 0.00 0.00 0.00 57 1008.7
20260505095014 55 324 2.0 2.0 0.00 0.00 0.00 57 1008.7
20260505094510 55 333 2.0 2.0 0.00 0.00 0.00 57 1008.7
20260505094006 55 335 2.0 2.0 0.00 0.00 0.00 57 1008.5
20260505093503 55 342 3.0 3.0 0.00 0.00 0.00 57 1008.7
20260505093000 56 332 2.0 3.0 0.00 0.00 0.00 56 1008.7
20260505092458 56 354 2.0 2.0 0.00 0.00 0.00 55 1008.6
20260505091955 57 348 1.0 1.0 0.00 0.00 0.00 54 1008.6
20260505091453 56 325 1.0 1.0 0.00 0.00 0.00 54 1008.5
20260505090951 56 303 1.0 2.0 0.00 0.00 0.00 54 1008.6
20260505090449 57 296 1.0 2.0 0.00 0.00 0.00 54 1008.5
20260505085946 57 354 4.0 4.0 0.00 0.00 0.00 53 1008.5
20260505085443 57 327 2.0 2.0 0.00 0.00 0.00 54 1008.4
20260505084942 57 320 4.0 7.0 0.00 0.00 0.00 54 1008.4
20260505084440 57 330 3.0 3.0 0.00 0.00 0.00 54 1008.4
20260505083937 57 317 3.0 3.0 0.00 0.00 0.00 53 1008.3
20260505083434 57 309 4.0 6.0 0.00 0.00 0.00 53 1008.3
20260505082931 57 306 3.0 4.0 0.00 0.00 0.00 53 1008.3
20260505082426 57 342 2.0 2.0 0.00 0.00 0.00 53 1008.6
20260505081924 58 340 4.0 3.0 0.00 0.00 0.00 52 1008.5
20260505081421 58 345 1.0 1.0 0.00 0.00 0.00 52 1008.5
20260505080917 58 338 2.0 2.0 0.00 0.00 0.00 52 1008.6
20260505080413 58 341 1.0 2.0 0.00 0.00 0.00 52 1008.5
20260505075908 58 339 2.0 3.0 0.00 0.00 0.00 53 1008.6
20260505075405 58 324 2.0 2.0 0.00 0.00 0.00 53 1008.4
20260505074903 58 345 0.0 1.0 0.00 0.00 0.00 53 1008.6
20260505074400 57 343 2.0 2.0 0.00 0.00 0.00 54 1008.5
20260505073857 57 325 1.0 2.0 0.00 0.00 0.00 54 1008.4
20260505073355 58 343 1.0 1.0 0.00 0.00 0.00 53 1008.5
20260505072852 58 346 1.0 1.0 0.00 0.00 0.00 53 1008.4
20260505072348 58 331 3.0 3.0 0.00 0.00 0.00 53 1008.3
20260505071844 58 344 3.0 3.0 0.00 0.00 0.00 53 1008.6
20260505071341 58 332 3.0 3.0 0.00 0.00 0.00 52 1008.1
20260505070839 58 333 2.0 3.0 0.00 0.00 0.00 52 1008.0
20260505070335 58 337 1.0 1.0 0.00 0.00 0.00 52 1008.1
20260505065830 58 338 2.0 2.0 0.00 0.00 0.00 52 1008.0
20260505065327 58 338 0.0 1.0 0.00 0.00 0.00 53 1008.0
20260505064824 58 342 1.0 1.0 0.00 0.00 0.00 54 1007.8
20260505064321 58 342 1.0 1.0 0.00 0.00 0.00 54 1007.8
20260505063820 58 342 1.0 1.0 0.00 0.00 0.00 54 1007.9
20260505063315 58 342 1.0 1.0 0.00 0.00 0.00 54 1008.3
20260505062812 58 342 1.0 1.0 0.00 0.00 0.00 54 1008.0
20260505062310 59 342 2.0 2.0 0.00 0.00 0.00 53 1007.8
20260505061806 59 342 2.0 2.0 0.00 0.00 0.00 52 1008.0
20260505061304 60 341 1.0 1.0 0.00 0.00 0.00 51 1007.9
20260505060802 60 343 2.0 2.0 0.00 0.00 0.00 51 1008.0
20260505060258 60 350 1.0 1.0 0.00 0.00 0.00 51 1007.7
20260505055754 60 350 2.0 2.0 0.00 0.00 0.00 52 1007.8
20260505055250 59 350 1.0 1.0 0.00 0.00 0.00 53 1007.9
20260505054748 59 350 1.0 1.0 0.00 0.00 0.00 53 1007.9
20260505054245 59 352 1.0 1.0 0.00 0.00 0.00 54 1007.7
20260505053743 58 352 2.0 2.0 0.00 0.00 0.00 54 1007.8
20260505053239 58 353 1.0 1.0 0.00 0.00 0.00 54 1007.9
20260505052737 58 353 0.0 0.0 0.00 0.00 0.00 55 1007.8
20260505052233 59 356 2.0 2.0 0.00 0.00 0.00 54 1007.6
20260505051730 59 356 1.0 1.0 0.00 0.00 0.00 53 1007.8
20260505051228 59 356 0.0 0.0 0.00 0.00 0.00 52 1007.9
20260505050726 59 356 0.0 0.0 0.00 0.00 0.00 51 1007.9
20260505050225 60 356 0.0 0.0 0.00 0.00 0.00 51 1007.7
20260505041654 62 357 0.0 0.0 0.00 0.00 0.00 44 1007.7
20260505041152 63 357 0.0 0.0 0.00 0.00 0.00 44 1007.7
20260505040648 63 356 0.0 0.0 0.00 0.00 0.00 43 1007.5
20260505040146 63 357 0.0 0.0 0.00 0.00 0.00 42 1007.5
20260505035642 63 357 0.0 0.0 0.00 0.00 0.00 42 1007.3
20260505035138 63 356 0.0 0.0 0.00 0.00 0.00 41 1007.4
20260505034635 64 357 0.0 0.0 0.00 0.00 0.00 41 1007.3
20260505034132 65 357 0.0 0.0 0.00 0.00 0.00 41 1007.4
20260505033628 66 357 0.0 0.0 0.00 0.00 0.00 38 1007.2
20260505033127 67 357 0.0 0.0 0.00 0.00 0.00 37 1007.2
20260505032625 68 357 0.0 0.0 0.00 0.00 0.00 35 1007.2
20260505032121 68 356 2.0 2.0 0.00 0.00 0.00 34 1007.2
20260505031618 68 357 2.0 3.0 0.00 0.00 0.00 34 1007.2
20260505031114 68 357 2.0 2.0 0.00 0.00 0.00 33 1007.2
20260505030611 68 10 2.0 3.0 0.00 0.00 0.00 32 1006.8
20260505030107 69 19 0.0 0.0 0.00 0.00 0.00 32 1006.8
20260505025603 69 20 0.0 0.0 0.00 0.00 0.00 32 1007.1
20260505025102 70 20 0.0 0.0 0.00 0.00 0.00 32 1006.8
20260505024558 71 24 1.0 1.0 0.00 0.00 0.00 30 1006.8
20260505024056 71 26 0.0 0.0 0.00 0.00 0.00 30 1006.7
20260505023553 72 26 1.0 1.0 0.00 0.00 0.00 30 1006.6
20260505023051 72 26 2.0 1.0 0.00 0.00 0.00 30 1006.8
20260505022548 73 330 2.0 3.0 0.00 0.00 0.00 28 1006.7
20260505022045 73 307 4.0 4.0 0.00 0.00 0.00 27 1006.6
20260505021542 73 313 5.0 6.0 0.00 0.00 0.00 28 1006.5
20260505021039 74 5 3.0 4.0 0.00 0.00 0.00 28 1006.5
20260505020538 75 30 0.0 1.0 0.00 0.00 0.00 29 1006.3
20260505020035 75 56 1.0 2.0 0.00 0.00 0.00 28 1006.6
20260505015532 75 347 1.0 1.0 0.00 0.00 0.00 28 1006.3
20260505015029 75 347 2.0 2.0 0.00 0.00 0.00 28 1006.5
20260505014526 75 346 6.0 8.0 0.00 0.00 0.00 26 1006.4
20260505014023 75 293 5.0 7.0 0.00 0.00 0.00 26 1006.4
20260505013520 75 315 6.0 9.0 0.00 0.00 0.00 26 1006.5
20260505013018 75 336 5.0 7.0 0.00 0.00 0.00 26 1006.4
20260505012516 76 335 6.0 9.0 0.00 0.00 0.00 26 1006.5
20260505012012 76 301 7.0 8.0 0.00 0.00 0.00 26 1006.6
20260505011508 76 315 5.0 9.0 0.00 0.00 0.00 26 1006.7
20260505011005 76 313 5.0 6.0 0.00 0.00 0.00 26 1006.6
20260505010500 76 313 6.0 9.0 0.00 0.00 0.00 25 1006.6
20260505005957 77 344 6.0 7.0 0.00 0.00 0.00 25 1006.7
20260505005454 77 320 6.0 7.0 0.00 0.00 0.00 24 1006.5
20260505004951 77 339 3.0 4.0 0.00 0.00 0.00 25 1006.6
20260505004448 77 350 6.0 7.0 0.00 0.00 0.00 25 1006.6
20260505003945 77 291 8.0 9.0 0.00 0.00 0.00 25 1006.8
20260505003442 77 342 5.0 7.0 0.00 0.00 0.00 26 1006.5
20260505002938 77 323 6.0 7.0 0.00 0.00 0.00 26 1006.6
20260505002434 78 321 8.0 10.0 0.00 0.00 0.00 27 1006.7
20260505001933 78 325 5.0 6.0 0.00 0.00 0.00 27 1006.5
20260505001430 78 312 7.0 8.0 0.00 0.00 0.00 26 1006.6
20260505000927 77 345 4.0 4.0 0.00 0.00 0.00 28 1006.8
20260505000427 78 342 9.0 11.0 0.00 0.00 0.00 26 1006.8
20260504235921 78 314 4.0 6.0 0.00 0.00 0.00 25 1006.5
20260504235419 78 287 9.0 11.0 0.00 0.00 0.00 25 1006.6
20260504234915 78 332 8.0 9.0 0.00 0.00 0.00 26 1006.5
20260504234413 78 308 11.0 13.0 0.00 0.00 0.00 26 1006.7
20260504233909 78 329 7.0 9.0 0.00 0.00 0.00 26 1006.7
20260504233405 78 323 6.0 8.0 0.00 0.00 0.00 27 1006.7
20260504232902 78 325 8.0 9.0 0.00 0.00 0.00 26 1006.9
20260504232359 79 337 5.0 7.0 0.00 0.00 0.00 27 1006.5
20260504231855 78 323 4.0 4.0 0.00 0.00 0.00 27 1006.6
20260504231352 79 330 4.0 7.0 0.00 0.00 0.00 26 1006.9
20260504230848 79 327 5.0 6.0 0.00 0.00 0.00 26 1006.7
20260504230346 78 352 7.0 8.0 0.00 0.00 0.00 27 1006.9
20260504225845 79 327 4.0 4.0 0.00 0.00 0.00 25 1006.9
20260504225340 79 329 5.0 7.0 0.00 0.00 0.00 26 1006.8
20260504224838 79 327 6.0 7.0 0.00 0.00 0.00 27 1006.9
20260504224335 79 326 5.0 7.0 0.00 0.00 0.00 25 1006.7
20260504223832 78 354 3.0 3.0 0.00 0.00 0.00 24 1007.2
20260504223327 79 310 8.0 10.0 0.00 0.00 0.00 24 1007.1
20260504222824 79 299 6.0 8.0 0.00 0.00 0.00 24 1007.1
20260504222321 79 330 8.0 10.0 0.00 0.00 0.00 23 1006.9
20260504221820 79 293 4.0 4.0 0.00 0.00 0.00 24 1007.3
20260504221316 79 349 4.0 4.0 0.00 0.00 0.00 24 1007.2
20260504220813 79 325 5.0 7.0 0.00 0.00 0.00 23 1007.4
20260504220309 78 350 5.0 7.0 0.00 0.00 0.00 23 1007.3
20260504215807 78 337 7.0 8.0 0.00 0.00 0.00 22 1007.5
20260504215304 78 349 5.0 8.0 0.00 0.00 0.00 21 1007.5
20260504214759 79 275 7.0 10.0 0.00 0.00 0.00 21 1007.5
20260504214256 79 308 7.0 8.0 0.00 0.00 0.00 20 1007.5
20260504213753 79 335 7.0 9.0 0.00 0.00 0.00 21 1007.4
20260504213249 79 322 6.0 9.0 0.00 0.00 0.00 22 1007.4
20260504212746 78 311 10.0 11.0 0.00 0.00 0.00 21 1007.5
20260504212242 78 314 11.0 15.0 0.00 0.00 0.00 21 1007.7
20260504211740 78 332 8.0 10.0 0.00 0.00 0.00 21 1007.3
20260504211236 78 327 10.0 18.0 0.00 0.00 0.00 21 1007.5
20260504210734 78 326 11.0 15.0 0.00 0.00 0.00 22 1007.7
20260504210231 79 342 9.0 13.0 0.00 0.00 0.00 21 1007.5
20260504205728 78 333 9.0 10.0 0.00 0.00 0.00 22 1007.6
20260504205225 79 352 8.0 11.0 0.00 0.00 0.00 22 1007.5
20260504204723 80 331 6.0 8.0 0.00 0.00 0.00 23 1007.7
20260504204221 80 24 5.0 6.0 0.00 0.00 0.00 26 1007.5
20260504203720 81 336 6.0 8.0 0.00 0.00 0.00 26 1007.7
20260504203217 81 14 2.0 2.0 0.00 0.00 0.00 28 1007.5
20260504202717 80 0 1.0 1.0 0.00 0.00 0.00 30 1007.5
20260504202215 80 345 1.0 1.0 0.00 0.00 0.00 27 1007.6
20260504201712 79 314 3.0 6.0 0.00 0.00 0.00 28 1007.6
20260504201209 80 333 2.0 3.0 0.00 0.00 0.00 30 1007.7
20260504200707 79 17 3.0 3.0 0.00 0.00 0.00 29 1007.5
20260504200203 79 8 4.0 6.0 0.00 0.00 0.00 30 1007.7
20260504195659 79 350 3.0 4.0 0.00 0.00 0.00 32 1007.8
20260504195155 78 351 1.0 1.0 0.00 0.00 0.00 30 1007.8
20260504194652 79 358 2.0 2.0 0.00 0.00 0.00 31 1007.6
20260504194148 79 342 3.0 2.0 0.00 0.00 0.00 30 1007.9
20260504193645 79 359 1.0 3.0 0.00 0.00 0.00 33 1008.0
20260504193143 78 11 1.0 1.0 0.00 0.00 0.00 34 1008.1
20260504192640 77 335 1.0 2.0 0.00 0.00 0.00 33 1007.9
20260504192138 77 350 2.0 3.0 0.00 0.00 0.00 36 1008.0
20260504191636 76 332 2.0 3.0 0.00 0.00 0.00 39 1008.1
20260504191132 75 340 4.0 4.0 0.00 0.00 0.00 39 1008.0
20260504190628 76 342 4.0 4.0 0.00 0.00 0.00 39 1008.3
20260504190125 76 11 3.0 3.0 0.00 0.00 0.00 38 1008.3
20260504185622 75 49 1.0 1.0 0.00 0.00 0.00 38 1008.4
20260504185118 75 3 1.0 2.0 0.00 0.00 0.00 38 1008.1
20260504184614 76 24 1.0 1.0 0.00 0.00 0.00 38 1008.1
20260504184109 75 35 3.0 3.0 0.00 0.00 0.00 38 1008.4
20260504183607 75 126 1.0 1.0 0.00 0.00 0.00 39 1008.5
20260504183105 75 113 1.0 1.0 0.00 0.00 0.00 39 1008.5
20260504182602 74 16 2.0 2.0 0.00 0.00 0.00 39 1008.5
20260504182059 73 28 1.0 1.0 0.00 0.00 0.00 42 1008.5
20260504181556 73 17 3.0 3.0 0.00 0.00 0.00 41 1008.6
20260504181054 72 126 1.0 2.0 0.00 0.00 0.00 42 1008.5
20260504180553 71 79 1.0 1.0 0.00 0.00 0.00 45 1008.6
20260504180051 71 95 1.0 2.0 0.00 0.00 0.00 42 1008.6
20260504175548 70 142 0.0 0.0 0.00 0.00 0.00 42 1008.8
20260504175044 69 156 1.0 2.0 0.00 0.00 0.00 44 1008.7
20260504174543 69 152 1.0 2.0 0.00 0.00 0.00 44 1008.9
20260504174039 69 139 2.0 2.0 0.00 0.00 0.00 45 1009.0
20260504173536 68 146 2.0 2.0 0.00 0.00 0.00 46 1009.0
20260504173034 68 149 2.0 1.0 0.00 0.00 0.00 46 1009.1
20260504172530 66 60 1.0 1.0 0.00 0.00 0.00 47 1009.0
20260504172026 68 16 3.0 3.0 0.00 0.00 0.00 43 1009.0
20260504171523 67 133 1.0 1.0 0.00 0.00 0.00 45 1009.2
20260504171020 66 133 0.0 0.0 0.00 0.00 0.00 46 1009.2
20260504170516 67 132 3.0 3.0 0.00 0.00 0.00 45 1009.0
20260504160436 60 122 1.0 1.0 0.00 0.00 0.00 52 1009.8